Regional Weather Roundup
Issued by NWS

Home | Current Version | Previous Version | Graphics & Text | Print | Product List | Glossary Off
Versions: 1 2 3 4 5 6 7 8 9 10 11 12 13 14 15 16 17 18 19 20 21 22 23 24 25 26 27 28 29 30 31 32 33 34 35 36 37 38 39 40 41 42 43 44 45 46 47 48 49 50

900
ASUS43 KLSX 310910
RWRMO

WEATHER SUMMARY FOR MISSOURI
NATIONAL WEATHER SERVICE SPRINGFIELD MO
400 AM CDT SUN JUL 31 2016

NOTE: "FAIR" INDICATES FEW OR NO CLOUDS BELOW 12,000 FEET WITH NO
       SIGNIFICANT WEATHER AND/OR OBSTRUCTIONS TO VISIBILITY.
       CURRENT SKY AND/OR WEATHER CONDITIONS ARE NOT AVAILABLE FOR
       CHILLICOTHE AND FARMINGTON.

MOZ001>031-035>038-043-044-053-054-311000-
...NORTHERN AND WESTERN MISSOURI...

CITY           SKY/WX    TMP DP  RH WIND       PRES   REMARKS
KANSAS CTY INT PTCLDY    71  64  78 SE8       29.96S
KANSAS C DTWN  CLEAR     74  66  76 E7        29.95S
LEE`S SUMMIT   CLEAR     73  66  78 SE8       29.97S
ST JOSEPH      CLEAR     71  66  84 SE5       29.95F
CHILLICOTHE      N/A     68  65  90 CALM      29.99S
KIRKSVILLE     CLEAR     62  60  93 CALM      30.00S

$$
MOZ066>068-077>081-088>096-101>105-311000-
...SOUTHWEST MISSOURI...

CITY           SKY/WX    TMP DP  RH WIND       PRES   REMARKS
SPRINGFIELD    PTCLDY    73  70  90 SE7       29.98S
JOPLIN         PTCLDY    72  70  93 S6        29.96S
BRANSON        CLOUDY    70  68  94 CALM      30.01S

$$
MOZ032>034-039>042-045>050-055>058-069>072-311000-
...CENTRAL MISSOURI...

CITY           SKY/WX    TMP DP  RH WIND       PRES   REMARKS
COLUMBIA       CLEAR     67  65  93 E6        29.99S
JEFFERSON CITY CLEAR     66  65  96 CALM      29.98S
ROLLA          CLEAR     66  64  93 CALM      29.99S
SEDALIA        CLEAR     69  65  86 SE5       29.99S
WHITEMAN AFB   CLEAR     68  68  99 SE5       29.96S
OSAGE BEACH    CLEAR     67  66  97 CALM      29.99S

$$
MOZ051-052-059>065-311000-
...EAST CENTRAL MISSOURI...

CITY           SKY/WX    TMP DP  RH WIND       PRES   REMARKS
ST LOUIS INTL  PTCLDY    74  67  78 CALM      29.99S
SPIRIT OF STL  CLEAR     67  67 100 W3        29.98S
ST CHARLES     CLEAR     67  67 100 CALM      29.98S

$$
MOZ072>076-082>087-097>100-106>115-311000-
...SOUTH CENTRAL AND SOUTHEAST MISSOURI...

CITY           SKY/WX    TMP DP  RH WIND       PRES   REMARKS
CAPE GIRARDEAU CLOUDY    73  71  93 CALM      29.98R
FARMINGTON     CLEAR     68  66  93 CALM      30.01S
POPLAR BLUFF   PTCLDY    74  73  97 SW5       29.97S
WEST PLAINS    CLEAR     71  67  87 CALM      30.02F

$$




USA.gov is the U.S. government's official web portal to all federal, state and local government web resources and services.